Flag for U.S.A. Weather past 2 weeks in Grand Prairie, Texas, U.S.A.

Now
82 °F

Clear.


Feels Like: 86 °F
Forecast: 76 / 93 °F
Wind: 8 mph from South

Location: Grand Prairie Municipal Airport

Current Time: Jul 1, 2015 at 10:57:44 PM

Latest Report: Jul 1, 2015 at 10:15 PM


Visibility: 10 mi

Pressure: 29.96 "Hg

Humidity: 67%

Dew point: 70 °F

Location of Grand PrairieLocation

Historic Weather in Grand Prairie — Graph

°F

Grand Prairie temperature yesterday

Maximum temperature yesterday: 93 °F (at 2:50 PM)
Minimum temperature yesterday: 71 °F (at 4:55 AM)
Average temperature yesterday: 81 °F

Past Weeks' High & Low Weather Summary

 TemperatureHumidityPressure
High93 °F (Jun 18, 3:50 PM)100% (Jun 17, 5:15 AM)30.20 "Hg (Jun 17, 5:15 AM)
Low71 °F (Jun 30, 4:55 AM)34% (Jun 28, 3:50 PM)29.69 "Hg (Jun 17, 2:50 PM)
Average80 °F74%30.01 "Hg
* Reported Jun 16 9:15 PM — Jul 1 9:15 PM, Grand Prairie, Weather by CustomWeather, © 2015

Note: Actual official high and low records may vary slightly from our data, if they occured in-between our weather recording intervals... More about our weather records

Advertising

Grand Prairie weather history for previous 24 hours

 ConditionsComfort  
Time TempWeatherWind HumidityBarometerVisibility
9:15 PM
Wed, Jul 1
83 °FSunny.9 mph68%29.95 "Hg10 mi
8:55 PM84 °FSunny.13 mph66%29.95 "Hg10 mi
8:35 PM85 °FSunny.13 mph64%29.95 "Hg10 mi
8:15 PM87 °FSunny.9 mph59%29.95 "Hg10 mi
7:50 PM88 °FSunny.13 mph59%29.95 "Hg10 mi
6:50 PM90 °FSunny.13 mph55%29.95 "Hg10 mi
5:50 PM91 °FSunny.10 mph49%29.95 "Hg10 mi
4:50 PM93 °FSunny.15 mph44%29.96 "Hg10 mi
3:50 PM93 °FSunny.12 mph47%29.98 "Hg10 mi
2:50 PM91 °FSunny.12 mph52%30.00 "Hg10 mi
1:50 PM90 °FSunny.14 mph52%30.01 "Hg10 mi
12:50 PM88 °FSunny.14 mph55%30.03 "Hg10 mi
11:50 AM84 °FSunny.9 mph62%30.03 "Hg10 mi
10:50 AM84 °FSunny.9 mph62%30.03 "Hg10 mi
9:50 AM81 °FSunny.12 mph70%30.03 "Hg10 mi
8:50 AM79 °FSunny.9 mph74%30.03 "Hg10 mi
7:50 AM75 °FSunny.9 mph89%30.03 "Hg10 mi
6:50 AM73 °FClear.7 mph94%30.02 "Hg10 mi
6:35 AM73 °FClear.6 mph93%30.02 "Hg10 mi
6:15 AM73 °FClear.5 mph92%30.02 "Hg10 mi
5:55 AM73 °FClear.6 mph91%30.01 "Hg10 mi
5:35 AM73 °FClear.7 mph91%30.01 "Hg10 mi
5:15 AM74 °FClear.8 mph91%30.01 "Hg10 mi
4:55 AM74 °FClear.7 mph91%30.01 "Hg10 mi
4:15 AM74 °FClear.8 mph91%30.01 "Hg10 mi
3:55 AM74 °FClear.9 mph90%30.01 "Hg10 mi
3:15 AM74 °FClear.8 mph89%30.02 "Hg10 mi
2:55 AM74 °FClear.10 mph87%30.02 "Hg10 mi
2:35 AM74 °FClear.8 mph86%30.02 "Hg10 mi
2:15 AM75 °FClear.5 mph85%30.02 "Hg10 mi
1:55 AM75 °FClear.6 mph83%30.02 "Hg10 mi
1:35 AM76 °FClear.7 mph83%30.01 "Hg10 mi
1:15 AM76 °FClear.6 mph81%30.01 "Hg10 mi
12:55 AM77 °FClear.8 mph80%30.03 "Hg10 mi
12:35 AM77 °FClear.5 mph80%30.03 "Hg10 mi
12:15 AM78 °FClear.6 mph78%30.02 "Hg10 mi
11:55 PM
Tue, Jun 30
79 °FClear.9 mph75%30.02 "Hg10 mi
11:15 PM81 °FClear.8 mph72%30.03 "Hg10 mi
10:55 PM81 °FClear.7 mph72%30.02 "Hg10 mi
10:15 PM83 °FPassing clouds.15 mph70%30.02 "Hg10 mi
Weather by CustomWeather, © 2015

See weather overviewHow to use our weather pages